Weather History for Charlotte, NC

Change the Weather History Date:

Friday, May 17, 2013

  Actual Average Record
Temperature  
Mean Temperature 72 °F 68 °F  
Max Temperature 85 °F 79 °F 93 °F (1896)
Min Temperature 58 °F 56 °F 43 °F (1973)
Degree Days  
Heating Degree Days 0 2  
Month to date heating degree days 63 41  
Since 1 July heating degree days 3210 3373  
Cooling Degree Days 7 4  
Month to date cooling degree days 33 48  
Year to date cooling degree days 76 85  
Growing Degree Days 20 (Base 50)    
Moisture  
Dew Point 61 °F    
Average Humidity 70    
Maximum Humidity 93    
Minimum Humidity 47    
Precipitation  
Precipitation 0.00 in 0.09 in 1.09 in (1963)
Month to date precipitation 2.27 1.67  
Year to date precipitation 18.02 15.45  
Snow  
Snow 0.00 in 0.00 in 0.00 in ()
Month to date snowfall 0.0 0.0  
Since 1 July snowfall 2.7 4.3  
Snow Depth 0.00 in    
Sea Level Pressure  
Sea Level Pressure 30.05 in    
Wind  
Wind Speed 3 mph (SSW)    
Max Wind Speed 14 mph    
Max Gust Speed 17 mph    
Visibility 10 miles    
Events      
T = Trace of Precipitation, MM = Missing Value Source: NWS Daily Summary

Daily Weather History Graph

Daily Weather History Graph

Search for Another Location

Airport:

Trip Planner

Search our weather history database for the weather conditions in past years. The results will help you decide how hot, cold, wet, or windy it might be!

Date:

Astronomy

May. 17, 2013 Rise Set
Actual Time 6:18 AM EDT 8:22 PM EDT
Civil Twilight 5:49 AM EDT 8:51 PM EDT
Nautical Twilight 5:15 AM EDT 9:25 PM EDT
Astronomical Twilight 4:38 AM EDT 10:03 PM EDT
Moon 12:42 PM EDT (5/17) 1:20 AM EDT (5/17)
Length of Visible Light 15h 01m
Length of Day
14h 04m
Waxing Crescent, 45% of the Moon is Illuminated
May 17
Waxing Crescent
May 18
First Quarter
May 25
Full
May 31
Last Quarter
Jun 8
New

Hourly Weather History & Observations

Time (EDT) Temp. Heat Index Dew Point Humidity Pressure Visibility Wind Dir Wind Speed Gust Speed Precip Events Conditions
12:52 AM 68.0 °F - 62.1 °F 81% 30.01 in 10.0 mi WSW 3.5 mph - N/A   Overcast
1:52 AM 66.9 °F - 62.1 °F 84% 30.01 in 10.0 mi Calm Calm - N/A   Overcast
2:52 AM 66.0 °F - 61.0 °F 84% 30.00 in 10.0 mi SSW 4.6 mph - N/A   Overcast
3:52 AM 63.0 °F - 60.1 °F 90% 30.01 in 10.0 mi Calm Calm - N/A   Mostly Cloudy
4:52 AM 63.0 °F - 59.0 °F 87% 30.02 in 10.0 mi Calm Calm - N/A   Scattered Clouds
5:52 AM 64.0 °F - 60.1 °F 87% 30.03 in 10.0 mi Calm Calm - N/A   Scattered Clouds
6:52 AM 63.0 °F - 60.1 °F 90% 30.06 in 10.0 mi Calm Calm - N/A   Mostly Cloudy
7:52 AM 64.9 °F - 61.0 °F 87% 30.07 in 9.0 mi South 3.5 mph - N/A   Scattered Clouds
8:52 AM 69.1 °F - 62.1 °F 78% 30.08 in 10.0 mi South 3.5 mph - N/A   Scattered Clouds
9:52 AM 73.0 °F - 62.1 °F 68% 30.08 in 10.0 mi Calm Calm - N/A   Scattered Clouds
10:52 AM 78.1 °F - 62.1 °F 58% 30.08 in 10.0 mi Calm Calm - N/A   Scattered Clouds
11:52 AM 80.1 °F 81.2 °F 62.1 °F 54% 30.08 in 10.0 mi Calm Calm - N/A   Clear
12:52 PM 82.0 °F 83.1 °F 63.0 °F 52% 30.07 in 10.0 mi South 5.8 mph - N/A   Scattered Clouds
1:52 PM 84.0 °F 85.4 °F 64.0 °F 51% 30.06 in 10.0 mi Variable 4.6 mph - N/A   Mostly Cloudy
2:52 PM 84.0 °F 84.5 °F 62.1 °F 47% 30.05 in 10.0 mi Variable 5.8 mph 16.1 mph N/A   Mostly Cloudy
3:52 PM 84.0 °F 84.5 °F 62.1 °F 47% 30.04 in 10.0 mi WSW 9.2 mph - N/A   Scattered Clouds
4:52 PM 82.9 °F 83.3 °F 61.0 °F 47% 30.03 in 10.0 mi SW 10.4 mph - N/A   Mostly Cloudy
5:52 PM 82.9 °F 83.2 °F 60.1 °F 46% 30.03 in 10.0 mi SW 9.2 mph - N/A   Mostly Cloudy
6:52 PM 81.0 °F 81.3 °F 59.0 °F 47% 30.03 in 10.0 mi SSW 6.9 mph - N/A   Mostly Cloudy
7:52 PM 78.1 °F - 60.1 °F 54% 30.04 in 10.0 mi SSW 3.5 mph - N/A   Mostly Cloudy
8:52 PM 73.9 °F - 60.1 °F 62% 30.05 in 10.0 mi SSW 4.6 mph - N/A   Mostly Cloudy
9:52 PM 73.9 °F - 61.0 °F 64% 30.06 in 10.0 mi Calm Calm - N/A   Overcast
10:52 PM 72.0 °F - 61.0 °F 68% 30.07 in 10.0 mi SSW 3.5 mph - N/A   Mostly Cloudy
11:52 PM 71.1 °F - 61.0 °F 70% 30.08 in 10.0 mi Calm Calm - N/A   Mostly Cloudy